Tracking 21094 objects as of 12-Aug-2020
HD Live streaming from Space Station
objects crossing your sky now
Track the most recent launched group of Starlink satellites

COSMOS 1375

Track COSMOS 1375 now!
10-day predictions
COSMOS 1375 is classified as:


NORAD ID: 13259
Int'l Code: 1982-055A
Perigee: 945.0 km
Apogee: 974.6 km
Inclination: 65.8 °
Period: 104.1 minutes
Semi major axis: 7330 km
RCS: 0.955 m2 (medium)
Launch date: June 6, 1982
Source: Commonwealth of Independent States (former USSR) (CIS)
Launch site: PLESETSK MISSILE AND SPACE COMPLEX (PKMTR)
aabbcc
Your satellite tracking list
Your tracking list is empty




NASA's NSSDC Master Catalog

Two Line Element Set (TLE):
1 13259U 82055A   20224.88674656  .00000018  00000-0  91181-4 0  9993
2 13259  65.8337 359.7720 0020184 183.1898 176.9043 13.83167197918666
Source of the keplerian elements: AFSPC